TimeEDT,TemperatureF,Dew PointF,Humidity,Sea Level PressureIn,VisibilityMPH,Wind Direction,Wind SpeedMPH,Gust SpeedMPH,PrecipitationIn,Events,Conditions,WindDirDegrees,DateUTC
12:51 AM,68.0,63.0,84,29.99,10.0,South,8.1,-,N/A,,Scattered Clouds,170,2013-08-30 04:51:00
1:51 AM,68.0,63.0,84,29.99,10.0,South,5.8,-,N/A,,Mostly Cloudy,170,2013-08-30 05:51:00
2:51 AM,66.9,63.0,87,29.97,10.0,South,6.9,-,N/A,,Mostly Cloudy,170,2013-08-30 06:51:00
3:25 AM,66.2,62.6,88,29.97,10.0,South,4.6,-,N/A,,Mostly Cloudy,180,2013-08-30 07:25:00
3:51 AM,66.9,62.1,84,29.97,10.0,South,5.8,-,N/A,,Mostly Cloudy,180,2013-08-30 07:51:00
4:14 AM,66.2,62.6,88,29.97,10.0,South,6.9,-,N/A,,Overcast,180,2013-08-30 08:14:00
4:51 AM,68.0,63.0,84,29.97,10.0,South,5.8,-,N/A,,Overcast,170,2013-08-30 08:51:00
5:47 AM,68.0,64.4,88,29.98,10.0,Calm,Calm,-,N/A,,Overcast,0,2013-08-30 09:47:00
5:51 AM,68.0,64.0,87,29.97,10.0,Calm,Calm,-,N/A,,Overcast,0,2013-08-30 09:51:00
6:51 AM,68.0,64.0,87,29.98,9.0,Calm,Calm,-,N/A,,Overcast,0,2013-08-30 10:51:00
7:51 AM,69.1,64.9,87,29.98,8.0,Calm,Calm,-,N/A,,Overcast,0,2013-08-30 11:51:00
8:35 AM,69.8,64.4,83,29.98,8.0,SSW,3.5,-,N/A,,Overcast,200,2013-08-30 12:35:00
8:46 AM,69.8,64.4,83,29.98,8.0,Calm,Calm,-,N/A,,Overcast,0,2013-08-30 12:46:00
8:51 AM,71.1,64.9,81,29.98,8.0,Calm,Calm,-,N/A,,Mostly Cloudy,0,2013-08-30 12:51:00
9:51 AM,72.0,64.9,78,29.97,10.0,Variable,4.6,-,N/A,,Overcast,0,2013-08-30 13:51:00
10:51 AM,75.0,64.9,71,29.96,10.0,Calm,Calm,-,N/A,,Mostly Cloudy,0,2013-08-30 14:51:00
11:26 AM,75.2,64.4,69,29.96,10.0,Calm,Calm,-,N/A,,Mostly Cloudy,0,2013-08-30 15:26:00
11:51 AM,78.1,64.9,64,29.94,10.0,Variable,3.5,-,N/A,,Mostly Cloudy,0,2013-08-30 15:51:00
12:51 PM,82.0,66.0,58,29.91,10.0,Variable,3.5,-,N/A,,Scattered Clouds,0,2013-08-30 16:51:00
1:51 PM,82.0,64.9,56,29.89,10.0,Calm,Calm,-,N/A,,Scattered Clouds,0,2013-08-30 17:51:00
2:51 PM,84.0,66.9,56,29.87,10.0,South,5.8,-,N/A,,Scattered Clouds,180,2013-08-30 18:51:00
3:51 PM,84.9,66.9,55,29.85,10.0,Variable,5.8,-,N/A,,Scattered Clouds,0,2013-08-30 19:51:00
4:51 PM,82.9,68.0,60,29.84,10.0,SSW,6.9,-,N/A,,Mostly Cloudy,210,2013-08-30 20:51:00
5:51 PM,81.0,66.0,60,29.83,10.0,South,6.9,-,N/A,,Mostly Cloudy,170,2013-08-30 21:51:00
6:51 PM,80.1,66.9,64,29.82,10.0,South,8.1,-,N/A,,Mostly Cloudy,170,2013-08-30 22:51:00
7:51 PM,79.0,66.9,66,29.83,10.0,South,5.8,-,N/A,,Overcast,180,2013-08-30 23:51:00
8:51 PM,77.0,66.9,71,29.83,10.0,South,3.5,-,N/A,,Overcast,170,2013-08-31 00:51:00
9:51 PM,77.0,66.9,71,29.82,10.0,SSE,4.6,-,N/A,,Overcast,160,2013-08-31 01:51:00
10:51 PM,75.0,66.9,76,29.82,10.0,SSE,4.6,-,N/A,,Overcast,160,2013-08-31 02:51:00
11:51 PM,73.9,66.9,79,29.81,10.0,South,6.9,-,N/A,,Mostly Cloudy,170,2013-08-31 03:51:00